Location: Devore Heights
(34.2372°N, 117.4156°W)
Time: 19:24:26
(UTC+00:00)

Vanguard 1 - Pass Details

Date: 16 September 2024
Orbit: 648 x 3825 km, 34.3° (Epoch: 13 October)

Event Time Altitude Azimuth Distance (km) Brightness Sun altitude
Rises 02:57:27 0° 266° (W) 3,047 14.2 -13.5°
Reaches altitude 10° 03:01:59 10° 223° (SW) 2,035 12.1 -14.5°
Maximum altitude 03:02:46 10° 213° (SSW) 2,016 11.9 -14.6°
Drops below altitude 10° 03:03:34 10° 202° (SSW) 2,058 11.8 -14.8°
Enters shadow 03:07:39 - 164° (SSE) 2,994 12.3 -15.6°
